TimeCST,TemperatureF,Dew PointF,Humidity,Sea Level PressureIn,VisibilityMPH,Wind Direction,Wind SpeedMPH,Gust SpeedMPH,PrecipitationIn,Events,Conditions,WindDirDegrees,DateUTC
12:02 AM,-25.6,-34.6,63,30.40,10.0,Calm,Calm,-,N/A,,Clear,0,2014-01-21 06:02:00
12:22 AM,-27.4,-34.6,69,30.40,10.0,Calm,Calm,-,N/A,,Clear,0,2014-01-21 06:22:00
12:43 AM,-27.4,-34.6,69,30.40,10.0,Calm,Calm,-,N/A,,Clear,0,2014-01-21 06:43:00
1:02 AM,-27.4,-34.6,69,30.40,10.0,Calm,Calm,-,N/A,,Clear,0,2014-01-21 07:02:00
1:22 AM,-27.4,-34.6,69,30.39,10.0,Calm,Calm,-,N/A,,Clear,0,2014-01-21 07:22:00
1:42 AM,-29.2,-36.4,68,30.39,10.0,Calm,Calm,-,N/A,,Clear,0,2014-01-21 07:42:00
2:02 AM,-29.2,-36.4,68,30.39,10.0,Calm,Calm,-,N/A,,Clear,0,2014-01-21 08:02:00
2:22 AM,-29.2,-36.4,68,30.39,10.0,Calm,Calm,-,N/A,,Clear,0,2014-01-21 08:22:00
2:43 AM,-31.0,-38.2,68,30.39,10.0,Calm,Calm,-,N/A,,Clear,0,2014-01-21 08:43:00
3:03 AM,-31.0,-38.2,68,30.39,10.0,Calm,Calm,-,N/A,,Clear,0,2014-01-21 09:03:00
3:22 AM,-31.0,-38.2,68,30.38,10.0,Calm,Calm,-,N/A,,Clear,0,2014-01-21 09:22:00
3:42 AM,-32.8,-38.2,75,30.37,10.0,Calm,Calm,-,N/A,,Clear,0,2014-01-21 09:42:00
4:02 AM,-32.8,-40.0,68,30.38,10.0,Calm,Calm,-,N/A,,Clear,0,2014-01-21 10:02:00
4:22 AM,-32.8,-41.8,62,30.37,10.0,Calm,Calm,-,N/A,,Clear,0,2014-01-21 10:22:00
4:42 AM,-32.8,-40.0,68,30.36,10.0,Calm,Calm,-,N/A,,Clear,0,2014-01-21 10:42:00
5:02 AM,-32.8,-40.0,68,30.36,10.0,Calm,Calm,-,N/A,,Scattered Clouds,0,2014-01-21 11:02:00
5:22 AM,-32.8,-38.2,75,30.36,10.0,Calm,Calm,-,N/A,,Clear,0,2014-01-21 11:22:00
5:42 AM,-32.8,-40.0,68,30.34,10.0,Calm,Calm,-,N/A,,Clear,0,2014-01-21 11:42:00
6:02 AM,-32.8,-38.2,75,30.33,10.0,Calm,Calm,-,N/A,,Clear,0,2014-01-21 12:02:00
6:22 AM,-29.2,-36.4,68,30.32,10.0,Calm,Calm,-,N/A,,Clear,0,2014-01-21 12:22:00
6:42 AM,-27.4,-34.6,69,30.32,10.0,Calm,Calm,-,N/A,,Clear,0,2014-01-21 12:42:00
7:02 AM,-27.4,-32.8,75,30.31,10.0,Calm,Calm,-,N/A,,Clear,0,2014-01-21 13:02:00
7:22 AM,-25.6,-32.8,69,30.31,10.0,Calm,Calm,-,N/A,,Clear,0,2014-01-21 13:22:00
7:42 AM,-25.6,-32.8,69,30.30,10.0,Calm,Calm,-,N/A,,Clear,0,2014-01-21 13:42:00
8:02 AM,-23.8,-29.2,76,30.29,10.0,Calm,Calm,-,N/A,,Clear,0,2014-01-21 14:02:00
8:22 AM,-23.8,-27.4,83,30.28,10.0,SSE,3.5,-,N/A,,Scattered Clouds,160,2014-01-21 14:22:00
8:42 AM,-22.0,-27.4,76,30.27,10.0,Calm,Calm,-,N/A,,Scattered Clouds,0,2014-01-21 14:42:00
9:02 AM,-20.2,-25.6,76,30.26,10.0,South,3.5,-,N/A,,Mostly Cloudy,190,2014-01-21 15:02:00
9:22 AM,-18.4,-23.8,76,30.25,10.0,South,4.6,-,N/A,,Scattered Clouds,170,2014-01-21 15:22:00
9:42 AM,-18.4,-23.8,76,30.25,10.0,Calm,Calm,-,N/A,,Mostly Cloudy,0,2014-01-21 15:42:00
10:02 AM,-13.0,-18.4,77,30.24,10.0,South,3.5,-,N/A,,Mostly Cloudy,190,2014-01-21 16:02:00
10:22 AM,-11.2,-16.6,77,30.24,10.0,South,3.5,-,N/A,,Mostly Cloudy,170,2014-01-21 16:22:00
10:43 AM,-11.2,-18.4,70,30.24,10.0,South,4.6,-,N/A,,Scattered Clouds,170,2014-01-21 16:43:00
11:02 AM,-9.4,-16.6,71,30.22,10.0,South,3.5,-,N/A,,Scattered Clouds,170,2014-01-21 17:02:00
11:22 AM,-7.6,-14.8,71,30.21,10.0,Calm,Calm,-,N/A,,Scattered Clouds,0,2014-01-21 17:22:00
11:42 AM,-5.8,-14.8,65,30.19,10.0,Calm,Calm,-,N/A,,Scattered Clouds,0,2014-01-21 17:42:00
12:02 PM,-5.8,-14.8,65,30.17,10.0,SSE,3.5,-,N/A,,Mostly Cloudy,160,2014-01-21 18:02:00
12:22 PM,-4.0,-14.8,60,30.15,10.0,South,3.5,-,N/A,,Scattered Clouds,170,2014-01-21 18:22:00
12:42 PM,-4.0,-14.8,60,30.14,10.0,SE,3.5,-,N/A,,Scattered Clouds,140,2014-01-21 18:42:00
1:02 PM,-2.2,-14.8,55,30.13,10.0,SSE,3.5,-,N/A,,Scattered Clouds,160,2014-01-21 19:02:00
1:23 PM,-2.2,-13.0,60,30.12,10.0,South,3.5,-,N/A,,Mostly Cloudy,180,2014-01-21 19:23:00
1:42 PM,-0.4,-13.0,55,30.11,10.0,SE,4.6,-,N/A,,Mostly Cloudy,140,2014-01-21 19:42:00
2:02 PM,-0.4,-13.0,55,30.10,10.0,South,3.5,-,N/A,,Mostly Cloudy,180,2014-01-21 20:02:00
2:22 PM,-0.4,-13.0,55,30.09,5.0,South,3.5,-,N/A,Snow,Light Snow,170,2014-01-21 20:22:00
2:42 PM,-0.4,-11.2,60,30.07,4.0,Calm,Calm,-,N/A,Snow,Light Snow,0,2014-01-21 20:42:00
3:02 PM,-0.4,-11.2,60,30.06,4.0,ESE,4.6,-,N/A,Snow,Light Snow,120,2014-01-21 21:02:00
3:22 PM,-0.4,-11.2,60,30.06,5.0,SSE,5.8,-,N/A,Snow,Light Snow,150,2014-01-21 21:22:00
3:42 PM,-0.4,-9.4,66,30.05,5.0,SSE,4.6,-,N/A,Snow,Light Snow,150,2014-01-21 21:42:00
4:02 PM,-0.4,-9.4,66,30.04,4.0,Calm,Calm,-,N/A,Snow,Light Snow,0,2014-01-21 22:02:00
4:22 PM,-0.4,-9.4,66,30.03,4.0,Calm,Calm,-,N/A,Snow,Light Snow,0,2014-01-21 22:22:00
4:42 PM,-0.4,-9.4,66,30.01,5.0,Calm,Calm,-,N/A,Snow,Light Snow,0,2014-01-21 22:42:00
5:02 PM,-0.4,-7.6,72,30.00,3.0,SSE,3.5,-,N/A,Snow,Light Snow,160,2014-01-21 23:02:00
5:22 PM,-0.4,-7.6,72,29.99,3.0,SSE,4.6,-,N/A,Snow,Light Snow,160,2014-01-21 23:22:00
5:42 PM,-0.4,-7.6,72,29.99,2.0,South,5.8,-,N/A,Snow,Light Snow,170,2014-01-21 23:42:00
6:02 PM,-2.2,-7.6,78,29.98,1.2,SE,3.5,-,N/A,Snow,Light Snow,140,2014-01-22 00:02:00
6:22 PM,-2.2,-7.6,78,29.98,1.5,South,4.6,-,N/A,Snow,Light Snow,170,2014-01-22 00:22:00
6:42 PM,-2.2,-5.8,85,29.97,1.5,South,3.5,-,N/A,Snow,Light Snow,170,2014-01-22 00:42:00
7:02 PM,-2.2,-5.8,85,29.97,1.0,South,3.5,-,N/A,Snow,Light Snow,190,2014-01-22 01:02:00
7:22 PM,-2.2,-5.8,85,29.96,1.0,South,3.5,-,N/A,Snow,Light Snow,180,2014-01-22 01:22:00
7:42 PM,-2.2,-5.8,85,29.96,1.2,South,4.6,-,N/A,Snow,Light Snow,190,2014-01-22 01:42:00
8:02 PM,-2.2,-5.8,85,29.96,1.2,Calm,Calm,-,0.01,Snow,Light Snow,0,2014-01-22 02:02:00
8:22 PM,-2.2,-5.8,85,29.94,1.5,South,3.5,-,0.01,Snow,Light Snow,190,2014-01-22 02:22:00
8:42 PM,-2.2,-5.8,85,29.93,1.0,South,3.5,-,0.01,Snow,Light Snow,190,2014-01-22 02:42:00
9:02 PM,-2.2,-5.8,85,29.92,1.5,Calm,Calm,-,N/A,Snow,Light Snow,0,2014-01-22 03:02:00
9:22 PM,-2.2,-5.8,85,29.92,1.8,South,3.5,-,N/A,Snow,Light Snow,190,2014-01-22 03:22:00
9:42 PM,-2.2,-5.8,85,29.91,2.0,South,3.5,-,N/A,Snow,Light Snow,190,2014-01-22 03:42:00
10:02 PM,-2.2,-5.8,85,29.91,3.0,SW,4.6,-,N/A,Snow,Light Snow,220,2014-01-22 04:02:00
10:22 PM,-2.2,-5.8,85,29.90,5.0,SSW,5.8,-,N/A,Snow,Light Snow,200,2014-01-22 04:22:00
10:42 PM,-2.2,-5.8,85,29.90,5.0,SSW,4.6,-,N/A,Snow,Light Snow,210,2014-01-22 04:42:00
11:02 PM,-2.2,-5.8,85,29.89,4.0,SSW,4.6,-,N/A,Snow,Light Snow,210,2014-01-22 05:02:00
11:22 PM,-2.2,-7.6,78,29.89,10.0,SW,3.5,-,N/A,Snow,Light Snow,220,2014-01-22 05:22:00
11:42 PM,-2.2,-7.6,78,29.89,7.0,Calm,Calm,-,N/A,Snow,Light Snow,0,2014-01-22 05:42:00